Time,TemperatureF,DewpointF,PressureIn,WindDirection,WindDirectionDegrees,WindSpeedMPH,WindSpeedGustMPH,Humidity,HourlyPrecipIn,Conditions,Clouds,dailyrainin,SoftwareType,DateUTC
2013-07-24 00:02:00,66.4,58.6,29.50,ENE,68,2.0,2.7,76,0.00,,,0.00,WUHU216HW,2013-07-24 05:02:00,
2013-07-24 00:07:00,66.2,58.4,29.50,NE,45,1.8,3.8,76,0.00,,,0.00,WUHU216HW,2013-07-24 05:07:00,
2013-07-24 00:12:00,66.1,58.2,29.50,ENE,68,1.3,3.8,76,0.00,,,0.00,WUHU216HW,2013-07-24 05:12:00,
2013-07-24 00:17:00,65.9,58.1,29.51,East,90,1.8,3.4,76,0.00,,,0.00,WUHU216HW,2013-07-24 05:17:00,
2013-07-24 00:22:00,65.7,57.9,29.51,ESE,113,0.9,3.4,76,0.00,,,0.00,WUHU216HW,2013-07-24 05:22:00,
2013-07-24 00:27:00,65.5,57.8,29.51,East,90,1.8,3.4,76,0.00,,,0.00,WUHU216HW,2013-07-24 05:27:00,
2013-07-24 00:32:00,65.5,57.8,29.51,NE,45,0.7,2.2,76,0.00,,,0.00,WUHU216HW,2013-07-24 05:32:00,
2013-07-24 00:37:00,65.2,57.4,29.52,ESE,113,1.1,3.1,76,0.00,,,0.00,WUHU216HW,2013-07-24 05:37:00,
2013-07-24 00:42:00,65.2,57.4,29.52,East,90,1.8,3.1,76,0.00,,,0.00,WUHU216HW,2013-07-24 05:42:00,
2013-07-24 00:47:00,65.0,57.3,29.52,ESE,113,1.1,2.0,76,0.00,,,0.00,WUHU216HW,2013-07-24 05:47:00,
2013-07-24 00:52:00,64.8,57.1,29.52,ESE,113,0.7,3.4,76,0.00,,,0.00,WUHU216HW,2013-07-24 05:52:00,
2013-07-24 00:57:00,64.6,57.3,29.52,ESE,113,0.4,3.4,77,0.00,,,0.00,WUHU216HW,2013-07-24 05:57:00,
2013-07-24 01:02:00,64.6,56.9,29.53,ESE,113,0.4,3.4,76,0.00,,,0.00,WUHU216HW,2013-07-24 06:02:00,
2013-07-24 01:07:00,64.4,57.1,29.52,SE,135,0.4,2.0,77,0.00,,,0.00,WUHU216HW,2013-07-24 06:07:00,
2013-07-24 01:12:00,64.4,56.7,29.52,ESE,113,1.1,2.0,76,0.00,,,0.00,WUHU216HW,2013-07-24 06:12:00,
2013-07-24 01:17:00,64.3,56.5,29.53,ENE,68,1.8,1.8,76,0.00,,,0.00,WUHU216HW,2013-07-24 06:17:00,
2013-07-24 01:22:00,64.1,56.3,29.53,ENE,68,0.7,1.8,76,0.00,,,0.00,WUHU216HW,2013-07-24 06:22:00,
2013-07-24 01:27:00,64.1,56.3,29.53,East,90,1.3,1.8,76,0.00,,,0.00,WUHU216HW,2013-07-24 06:27:00,
2013-07-24 01:32:00,63.9,56.2,29.53,ENE,68,1.8,2.2,76,0.00,,,0.00,WUHU216HW,2013-07-24 06:32:00,
2013-07-24 01:37:00,63.7,56.0,29.52,SE,135,0.9,2.2,76,0.00,,,0.00,WUHU216HW,2013-07-24 06:37:00,
2013-07-24 01:42:00,63.7,56.0,29.53,ENE,68,0.9,1.3,76,0.00,,,0.00,WUHU216HW,2013-07-24 06:42:00,
2013-07-24 01:47:00,63.5,55.8,29.52,East,90,0.7,1.8,76,0.00,,,0.00,WUHU216HW,2013-07-24 06:47:00,
2013-07-24 01:52:00,63.5,55.8,29.53,ESE,113,0.0,1.8,76,0.00,,,0.00,WUHU216HW,2013-07-24 06:52:00,
2013-07-24 01:57:00,63.4,55.6,29.53,ENE,68,0.4,1.8,76,0.00,,,0.00,WUHU216HW,2013-07-24 06:57:00,
2013-07-24 02:02:00,63.4,55.6,29.52,East,90,0.7,1.1,76,0.00,,,0.00,WUHU216HW,2013-07-24 07:02:00,
2013-07-24 02:07:00,63.2,55.4,29.53,East,90,0.7,1.1,76,0.00,,,0.00,WUHU216HW,2013-07-24 07:07:00,
2013-07-24 02:12:00,63.0,55.3,29.53,SE,135,0.7,1.6,76,0.00,,,0.00,WUHU216HW,2013-07-24 07:12:00,
2013-07-24 02:17:00,63.0,55.3,29.53,SE,135,1.1,1.6,76,0.00,,,0.00,WUHU216HW,2013-07-24 07:17:00,
2013-07-24 02:22:00,62.8,55.1,29.52,ENE,68,0.7,1.1,76,0.00,,,0.00,WUHU216HW,2013-07-24 07:22:00,
2013-07-24 02:27:00,62.6,54.9,29.52,NNE,23,0.0,1.1,76,0.00,,,0.00,WUHU216HW,2013-07-24 07:27:00,
2013-07-24 02:32:00,62.6,54.9,29.53,ENE,68,0.0,1.1,76,0.00,,,0.00,WUHU216HW,2013-07-24 07:32:00,
2013-07-24 02:37:00,62.5,54.7,29.52,East,90,1.6,1.6,76,0.00,,,0.00,WUHU216HW,2013-07-24 07:37:00,
2013-07-24 02:42:00,62.5,54.7,29.53,ENE,68,0.4,1.6,76,0.00,,,0.00,WUHU216HW,2013-07-24 07:42:00,
2013-07-24 02:47:00,62.5,54.7,29.53,East,90,0.0,0.9,76,0.00,,,0.00,WUHU216HW,2013-07-24 07:47:00,
2013-07-24 02:52:00,62.3,54.9,29.53,ESE,113,0.0,0.9,77,0.00,,,0.00,WUHU216HW,2013-07-24 07:52:00,
2013-07-24 02:57:00,62.3,54.9,29.53,East,90,0.0,0.4,77,0.00,,,0.00,WUHU216HW,2013-07-24 07:57:00,
2013-07-24 03:02:00,62.3,54.9,29.53,East,90,0.0,0.4,77,0.00,,,0.00,WUHU216HW,2013-07-24 08:02:00,
2013-07-24 03:07:00,62.3,54.9,29.54,East,90,0.0,0.0,77,0.00,,,0.00,WUHU216HW,2013-07-24 08:07:00,
2013-07-24 03:12:00,62.3,54.5,29.54,East,90,0.0,0.0,76,0.00,,,0.00,WUHU216HW,2013-07-24 08:12:00,
2013-07-24 03:17:00,62.3,54.5,29.54,East,90,0.0,0.0,76,0.00,,,0.00,WUHU216HW,2013-07-24 08:17:00,
2013-07-24 03:22:00,62.3,54.5,29.53,East,90,0.0,0.0,76,0.00,,,0.00,WUHU216HW,2013-07-24 08:22:00,
2013-07-24 03:27:00,62.3,54.5,29.53,ESE,113,0.0,0.4,76,0.00,,,0.00,WUHU216HW,2013-07-24 08:27:00,
2013-07-24 03:32:00,62.3,54.5,29.54,ESE,113,0.0,0.4,76,0.00,,,0.00,WUHU216HW,2013-07-24 08:32:00,
2013-07-24 03:37:00,62.3,54.5,29.54,ESE,113,0.0,0.0,76,0.00,,,0.00,WUHU216HW,2013-07-24 08:37:00,
2013-07-24 03:42:00,62.1,54.8,29.54,ESE,113,0.0,0.0,77,0.00,,,0.00,WUHU216HW,2013-07-24 08:42:00,
2013-07-24 03:47:00,62.3,54.5,29.54,ESE,113,0.0,0.0,76,0.00,,,0.00,WUHU216HW,2013-07-24 08:47:00,
2013-07-24 03:52:00,62.1,54.8,29.54,ESE,113,0.0,0.0,77,0.00,,,0.00,WUHU216HW,2013-07-24 08:52:00,
2013-07-24 03:57:00,62.1,54.8,29.54,ESE,113,0.0,0.0,77,0.00,,,0.00,WUHU216HW,2013-07-24 08:57:00,
2013-07-24 04:02:00,62.1,54.8,29.54,ESE,113,0.0,0.0,77,0.00,,,0.00,WUHU216HW,2013-07-24 09:02:00,
2013-07-24 04:07:00,62.1,54.8,29.54,ESE,113,0.0,0.0,77,0.00,,,0.00,WUHU216HW,2013-07-24 09:07:00,
2013-07-24 04:12:00,61.9,54.6,29.54,ESE,113,0.0,0.0,77,0.00,,,0.00,WUHU216HW,2013-07-24 09:12:00,
2013-07-24 04:17:00,61.9,54.6,29.54,ESE,113,0.0,0.0,77,0.00,,,0.00,WUHU216HW,2013-07-24 09:17:00,
2013-07-24 04:22:00,61.9,54.6,29.54,SE,135,0.0,0.0,77,0.00,,,0.00,WUHU216HW,2013-07-24 09:22:00,
2013-07-24 04:27:00,61.9,54.6,29.54,SE,135,0.0,0.0,77,0.00,,,0.00,WUHU216HW,2013-07-24 09:27:00,
2013-07-24 04:32:00,61.9,54.6,29.54,SE,135,0.0,0.0,77,0.00,,,0.00,WUHU216HW,2013-07-24 09:32:00,
2013-07-24 04:37:00,61.9,54.6,29.54,NE,45,0.4,0.4,77,0.00,,,0.00,WUHU216HW,2013-07-24 09:37:00,
2013-07-24 04:42:00,61.7,54.5,29.54,NNE,23,0.4,0.7,77,0.00,,,0.00,WUHU216HW,2013-07-24 09:42:00,
2013-07-24 04:47:00,61.7,54.5,29.54,East,90,0.0,0.7,77,0.00,,,0.00,WUHU216HW,2013-07-24 09:47:00,
2013-07-24 04:52:00,61.6,54.3,29.55,ENE,68,0.0,0.4,77,0.00,,,0.00,WUHU216HW,2013-07-24 09:52:00,
2013-07-24 04:57:00,61.6,54.3,29.55,East,90,0.0,0.2,77,0.00,,,0.00,WUHU216HW,2013-07-24 09:57:00,
2013-07-24 05:02:00,61.6,54.3,29.56,ESE,113,0.0,0.2,77,0.00,,,0.00,WUHU216HW,2013-07-24 10:02:00,
2013-07-24 05:07:00,61.6,54.3,29.56,NNE,23,0.0,0.2,77,0.00,,,0.00,WUHU216HW,2013-07-24 10:07:00,
2013-07-24 05:12:00,61.6,54.3,29.56,NE,45,0.0,0.0,77,0.00,,,0.00,WUHU216HW,2013-07-24 10:12:00,
2013-07-24 05:17:00,61.6,54.3,29.56,ENE,68,0.0,0.0,77,0.00,,,0.00,WUHU216HW,2013-07-24 10:17:00,
2013-07-24 05:22:00,61.4,54.1,29.56,ENE,68,0.0,0.0,77,0.00,,,0.00,WUHU216HW,2013-07-24 10:22:00,
2013-07-24 05:27:00,61.4,54.5,29.56,North,0,0.4,0.4,78,0.00,,,0.00,WUHU216HW,2013-07-24 10:27:00,
2013-07-24 05:32:00,61.2,54.4,29.56,NW,315,0.4,0.4,78,0.00,,,0.00,WUHU216HW,2013-07-24 10:32:00,
2013-07-24 05:37:00,61.2,54.4,29.56,ENE,68,0.2,0.4,78,0.00,,,0.00,WUHU216HW,2013-07-24 10:37:00,
2013-07-24 05:42:00,61.2,54.4,29.56,NE,45,0.2,0.4,78,0.00,,,0.00,WUHU216HW,2013-07-24 10:42:00,
2013-07-24 05:47:00,61.0,54.6,29.56,NE,45,0.4,0.4,79,0.00,,,0.00,WUHU216HW,2013-07-24 10:47:00,
2013-07-24 05:52:00,61.0,54.6,29.56,ENE,68,0.2,0.7,79,0.00,,,0.00,WUHU216HW,2013-07-24 10:52:00,
2013-07-24 05:57:00,61.0,54.6,29.57,NNE,23,0.2,1.1,79,0.00,,,0.00,WUHU216HW,2013-07-24 10:57:00,
2013-07-24 06:02:00,61.2,54.7,29.56,NNE,23,0.4,1.1,79,0.00,,,0.00,WUHU216HW,2013-07-24 11:02:00,
2013-07-24 06:07:00,61.4,54.8,29.56,NNE,23,0.0,1.1,79,0.00,,,0.00,WUHU216HW,2013-07-24 11:07:00,
2013-07-24 06:12:00,61.4,54.8,29.56,ENE,68,0.2,1.1,79,0.00,,,0.00,WUHU216HW,2013-07-24 11:12:00,
2013-07-24 06:17:00,61.2,54.7,29.56,North,0,0.0,0.7,79,0.00,,,0.00,WUHU216HW,2013-07-24 11:17:00,
2013-07-24 06:22:00,61.2,54.7,29.56,NE,45,0.4,0.4,79,0.00,,,0.00,WUHU216HW,2013-07-24 11:22:00,
2013-07-24 06:27:00,61.4,54.8,29.56,NE,45,0.4,0.7,79,0.00,,,0.00,WUHU216HW,2013-07-24 11:27:00,
2013-07-24 06:32:00,61.2,54.7,29.56,NE,45,0.7,1.1,79,0.00,,,0.00,WUHU216HW,2013-07-24 11:32:00,
2013-07-24 06:37:00,61.0,54.6,29.56,NE,45,0.4,1.3,79,0.00,,,0.00,WUHU216HW,2013-07-24 11:37:00,
2013-07-24 06:42:00,60.8,54.7,29.56,NE,45,0.4,1.3,80,0.00,,,0.00,WUHU216HW,2013-07-24 11:42:00,
2013-07-24 06:47:00,60.8,54.7,29.56,ENE,68,0.0,1.3,80,0.00,,,0.00,WUHU216HW,2013-07-24 11:47:00,
2013-07-24 06:52:00,61.2,55.1,29.56,NE,45,1.1,1.3,80,0.00,,,0.00,WUHU216HW,2013-07-24 11:52:00,
2013-07-24 06:57:00,61.4,55.2,29.56,NE,45,0.0,1.1,80,0.00,,,0.00,WUHU216HW,2013-07-24 11:57:00,
2013-07-24 07:02:00,61.9,55.4,29.56,North,0,1.1,1.1,79,0.00,,,0.00,WUHU216HW,2013-07-24 12:02:00,
2013-07-24 07:07:00,62.3,55.6,29.56,East,90,0.9,1.1,79,0.00,,,0.00,WUHU216HW,2013-07-24 12:07:00,
2013-07-24 07:12:00,62.6,56.0,29.56,ENE,68,0.0,1.8,79,0.00,,,0.00,WUHU216HW,2013-07-24 12:12:00,
2013-07-24 07:17:00,63.0,56.0,29.56,ENE,68,0.2,1.8,78,0.00,,,0.00,WUHU216HW,2013-07-24 12:17:00,
2013-07-24 07:22:00,63.5,56.5,29.56,NNE,23,0.0,0.7,78,0.00,,,0.00,WUHU216HW,2013-07-24 12:22:00,
2013-07-24 07:27:00,63.7,56.3,29.57,NNE,23,1.6,1.6,77,0.00,,,0.00,WUHU216HW,2013-07-24 12:27:00,
2013-07-24 07:32:00,63.7,56.0,29.57,NE,45,0.0,1.6,76,0.00,,,0.00,WUHU216HW,2013-07-24 12:32:00,
2013-07-24 07:37:00,63.7,55.6,29.57,NNE,23,0.4,2.2,75,0.00,,,0.00,WUHU216HW,2013-07-24 12:37:00,
2013-07-24 07:42:00,63.9,55.8,29.57,NE,45,0.0,2.2,75,0.00,,,0.00,WUHU216HW,2013-07-24 12:42:00,
2013-07-24 07:47:00,64.4,56.3,29.58,NNE,23,1.8,1.8,75,0.00,,,0.00,WUHU216HW,2013-07-24 12:47:00,
2013-07-24 07:52:00,64.8,56.7,29.58,NE,45,0.9,1.8,75,0.00,,,0.00,WUHU216HW,2013-07-24 12:52:00,
2013-07-24 07:57:00,65.2,56.3,29.58,ESE,113,0.4,1.1,73,0.00,,,0.00,WUHU216HW,2013-07-24 12:57:00,
2013-07-24 08:02:00,65.5,56.6,29.58,NE,45,1.1,1.1,73,0.00,,,0.00,WUHU216HW,2013-07-24 13:02:00,
2013-07-24 08:07:00,65.9,56.3,29.58,NE,45,1.8,1.8,71,0.00,,,0.00,WUHU216HW,2013-07-24 13:07:00,
2013-07-24 08:12:00,66.1,56.0,29.58,NE,45,2.7,2.7,70,0.00,,,0.00,WUHU216HW,2013-07-24 13:12:00,
2013-07-24 08:17:00,66.1,55.6,29.58,NE,45,0.9,2.7,69,0.00,,,0.00,WUHU216HW,2013-07-24 13:17:00,
2013-07-24 08:22:00,65.9,55.0,29.58,SE,135,2.2,3.4,68,0.00,,,0.00,WUHU216HW,2013-07-24 13:22:00,
2013-07-24 08:27:00,65.9,55.0,29.58,East,90,0.4,3.4,68,0.00,,,0.00,WUHU216HW,2013-07-24 13:27:00,
2013-07-24 08:32:00,66.2,55.4,29.58,NE,45,0.7,2.7,68,0.00,,,0.00,WUHU216HW,2013-07-24 13:32:00,
2013-07-24 08:37:00,66.4,55.1,29.58,North,0,0.2,3.1,67,0.00,,,0.00,WUHU216HW,2013-07-24 13:37:00,
2013-07-24 08:42:00,66.6,55.3,29.58,NNW,338,1.6,3.1,67,0.00,,,0.00,WUHU216HW,2013-07-24 13:42:00,
2013-07-24 08:47:00,67.1,56.3,29.58,NNW,338,1.1,1.8,68,0.00,,,0.00,WUHU216HW,2013-07-24 13:47:00,
2013-07-24 08:52:00,67.1,54.9,29.58,East,90,1.3,2.9,65,0.00,,,0.00,WUHU216HW,2013-07-24 13:52:00,
2013-07-24 08:57:00,67.0,54.4,29.58,NE,45,1.8,2.9,64,0.00,,,0.00,WUHU216HW,2013-07-24 13:57:00,
2013-07-24 09:02:00,67.1,54.6,29.58,East,90,2.2,3.4,64,0.00,,,0.00,WUHU216HW,2013-07-24 14:02:00,
2013-07-24 09:07:00,67.5,54.0,29.58,East,90,1.6,3.4,62,0.00,,,0.00,WUHU216HW,2013-07-24 14:07:00,
2013-07-24 09:12:00,67.9,54.4,29.58,SE,135,2.5,3.1,62,0.00,,,0.00,WUHU216HW,2013-07-24 14:12:00,
2013-07-24 09:17:00,68.0,54.6,29.58,ENE,68,1.1,2.5,62,0.00,,,0.00,WUHU216HW,2013-07-24 14:17:00,
2013-07-24 09:22:00,68.6,54.6,29.58,NE,45,3.4,3.4,61,0.00,,,0.00,WUHU216HW,2013-07-24 14:22:00,
2013-07-24 09:27:00,68.8,54.8,29.58,ESE,113,3.4,3.4,61,0.00,,,0.00,WUHU216HW,2013-07-24 14:27:00,
2013-07-24 09:32:00,68.6,54.2,29.58,NNW,338,1.1,3.4,60,0.00,,,0.00,WUHU216HW,2013-07-24 14:32:00,
2013-07-24 09:37:00,69.3,54.4,29.58,ESE,113,3.4,3.4,59,0.00,,,0.00,WUHU216HW,2013-07-24 14:37:00,
2013-07-24 09:42:00,69.1,53.7,29.59,ENE,68,2.7,3.4,58,0.00,,,0.00,WUHU216HW,2013-07-24 14:42:00,
2013-07-24 09:47:00,69.3,54.4,29.59,ENE,68,1.6,4.9,59,0.00,,,0.00,WUHU216HW,2013-07-24 14:47:00,
2013-07-24 09:52:00,69.5,54.1,29.58,SE,135,2.5,2.5,58,0.00,,,0.00,WUHU216HW,2013-07-24 14:52:00,
2013-07-24 09:57:00,69.8,53.5,29.58,North,0,2.5,2.7,56,0.00,,,0.00,WUHU216HW,2013-07-24 14:57:00,
2013-07-24 10:02:00,69.7,53.3,29.58,NNE,23,2.2,3.1,56,0.00,,,0.00,WUHU216HW,2013-07-24 15:02:00,
2013-07-24 10:07:00,69.7,53.7,29.58,ENE,68,1.3,4.5,57,0.00,,,0.00,WUHU216HW,2013-07-24 15:07:00,
2013-07-24 10:12:00,70.0,54.6,29.58,ENE,68,2.0,4.5,58,0.00,,,0.00,WUHU216HW,2013-07-24 15:12:00,
2013-07-24 10:17:00,70.4,53.9,29.58,NNW,338,1.8,3.4,56,0.00,,,0.00,WUHU216HW,2013-07-24 15:17:00,
2013-07-24 10:22:00,70.6,54.5,29.59,NNW,338,1.8,3.4,57,0.00,,,0.00,WUHU216HW,2013-07-24 15:22:00,
2013-07-24 10:27:00,70.7,54.3,29.59,East,90,1.3,3.4,56,0.00,,,0.00,WUHU216HW,2013-07-24 15:27:00,
2013-07-24 10:32:00,70.7,53.7,29.59,East,90,3.4,3.4,55,0.00,,,0.00,WUHU216HW,2013-07-24 15:32:00,
2013-07-24 10:37:00,71.1,54.1,29.59,NE,45,2.5,3.4,55,0.00,,,0.00,WUHU216HW,2013-07-24 15:37:00,
2013-07-24 10:42:00,71.3,55.3,29.59,North,0,1.6,2.5,57,0.00,,,0.00,WUHU216HW,2013-07-24 15:42:00,
2013-07-24 10:47:00,71.6,54.5,29.59,NW,315,2.9,2.9,55,0.00,,,0.00,WUHU216HW,2013-07-24 15:47:00,
2013-07-24 10:52:00,72.0,54.9,29.59,North,0,4.0,4.0,55,0.00,,,0.00,WUHU216HW,2013-07-24 15:52:00,
2013-07-24 10:57:00,72.0,54.9,29.59,SE,135,1.6,4.0,55,0.00,,,0.00,WUHU216HW,2013-07-24 15:57:00,
2013-07-24 11:02:00,72.0,54.9,29.59,North,0,0.7,4.7,55,0.00,,,0.00,WUHU216HW,2013-07-24 16:02:00,
2013-07-24 11:07:00,72.4,54.7,29.59,ENE,68,1.6,4.7,54,0.00,,,0.00,WUHU216HW,2013-07-24 16:07:00,
2013-07-24 11:12:00,72.5,55.4,29.60,East,90,1.8,2.7,55,0.00,,,0.00,WUHU216HW,2013-07-24 16:12:00,
2013-07-24 11:17:00,72.5,54.4,29.59,North,0,1.1,2.2,53,0.00,,,0.00,WUHU216HW,2013-07-24 16:17:00,
2013-07-24 11:22:00,72.4,54.2,29.60,ESE,113,2.5,2.7,53,0.00,,,0.00,WUHU216HW,2013-07-24 16:22:00,
2013-07-24 11:27:00,72.5,54.8,29.60,NW,315,1.6,2.7,54,0.00,,,0.00,WUHU216HW,2013-07-24 16:27:00,
2013-07-24 11:32:00,73.1,55.4,29.60,NE,45,2.0,2.5,54,0.00,,,0.00,WUHU216HW,2013-07-24 16:32:00,
2013-07-24 11:37:00,73.4,55.2,29.60,North,0,1.8,2.0,53,0.00,,,0.00,WUHU216HW,2013-07-24 16:37:00,
2013-07-24 11:42:00,73.6,54.8,29.60,SW,225,1.8,2.9,52,0.00,,,0.00,WUHU216HW,2013-07-24 16:42:00,
2013-07-24 11:47:00,73.6,54.8,29.60,NE,45,1.1,2.9,52,0.00,,,0.00,WUHU216HW,2013-07-24 16:47:00,
2013-07-24 11:52:00,73.8,54.0,29.60,ENE,68,1.8,2.9,50,0.00,,,0.00,WUHU216HW,2013-07-24 16:52:00,
2013-07-24 11:57:00,73.4,54.2,29.60,ENE,68,1.8,2.9,51,0.00,,,0.00,WUHU216HW,2013-07-24 16:57:00,
2013-07-24 12:02:00,73.8,55.0,29.60,ENE,68,2.0,2.9,52,0.00,,,0.00,WUHU216HW,2013-07-24 17:02:00,
2013-07-24 12:08:00,74.0,54.2,29.60,East,90,1.3,3.8,50,0.00,,,0.00,WUHU216HW,2013-07-24 17:08:00,
2013-07-24 12:13:00,74.3,54.5,29.60,North,0,2.2,4.5,50,0.00,,,0.00,WUHU216HW,2013-07-24 17:13:00,
2013-07-24 12:18:00,74.7,55.5,29.60,East,90,0.4,4.5,51,0.00,,,0.00,WUHU216HW,2013-07-24 17:18:00,
2013-07-24 12:23:00,74.9,53.8,29.60,NNE,23,2.9,3.4,48,0.00,,,0.00,WUHU216HW,2013-07-24 17:23:00,
2013-07-24 12:28:00,74.7,54.3,29.60,ENE,68,3.4,3.4,49,0.00,,,0.00,WUHU216HW,2013-07-24 17:28:00,
2013-07-24 12:33:00,74.9,54.5,29.61,NE,45,1.3,3.4,49,0.00,,,0.00,WUHU216HW,2013-07-24 17:33:00,
2013-07-24 12:38:00,75.1,54.6,29.60,East,90,3.1,3.1,49,0.00,,,0.00,WUHU216HW,2013-07-24 17:38:00,
2013-07-24 12:43:00,75.2,54.2,29.60,ENE,68,1.8,3.1,48,0.00,,,0.00,WUHU216HW,2013-07-24 17:43:00,
2013-07-24 12:48:00,75.1,54.0,29.60,SE,135,0.9,3.4,48,0.00,,,0.00,WUHU216HW,2013-07-24 17:48:00,
2013-07-24 12:53:00,75.2,54.2,29.60,East,90,0.4,3.4,48,0.00,,,0.00,WUHU216HW,2013-07-24 17:53:00,
2013-07-24 12:58:00,76.0,54.3,29.60,ENE,68,1.6,2.2,47,0.00,,,0.00,WUHU216HW,2013-07-24 17:58:00,
2013-07-24 13:03:00,76.1,54.5,29.60,ESE,113,3.1,3.1,47,0.00,,,0.00,WUHU216HW,2013-07-24 18:03:00,
2013-07-24 13:08:00,76.0,54.9,29.60,NNW,338,1.3,3.1,48,0.00,,,0.00,WUHU216HW,2013-07-24 18:08:00,
2013-07-24 13:13:00,76.1,55.6,29.60,SE,135,1.3,2.7,49,0.00,,,0.00,WUHU216HW,2013-07-24 18:13:00,
2013-07-24 13:18:00,76.7,54.3,29.60,ESE,113,0.9,2.9,46,0.00,,,0.00,WUHU216HW,2013-07-24 18:18:00,
2013-07-24 13:23:00,76.7,54.9,29.60,ESE,113,1.6,2.9,47,0.00,,,0.00,WUHU216HW,2013-07-24 18:23:00,
2013-07-24 13:28:00,76.9,54.5,29.60,NE,45,1.1,2.5,46,0.00,,,0.00,WUHU216HW,2013-07-24 18:28:00,
2013-07-24 13:33:00,77.0,54.6,29.60,ENE,68,2.0,3.8,46,0.00,,,0.00,WUHU216HW,2013-07-24 18:33:00,
2013-07-24 13:38:00,77.8,55.9,29.60,NE,45,1.3,3.8,47,0.00,,,0.00,WUHU216HW,2013-07-24 18:38:00,
2013-07-24 13:43:00,77.8,55.3,29.59,NNE,23,1.6,2.9,46,0.00,,,0.00,WUHU216HW,2013-07-24 18:43:00,
2013-07-24 13:48:00,77.4,54.9,29.59,East,90,1.1,2.9,46,0.00,,,0.00,WUHU216HW,2013-07-24 18:48:00,
2013-07-24 13:53:00,77.6,55.7,29.59,NNE,23,1.1,3.1,47,0.00,,,0.00,WUHU216HW,2013-07-24 18:53:00,
2013-07-24 13:58:00,77.9,56.1,29.59,North,0,0.9,3.1,47,0.00,,,0.00,WUHU216HW,2013-07-24 18:58:00,
2013-07-24 14:01:00,78.1,55.6,29.59,WNW,293,3.8,3.8,46,0.00,,,0.00,WUHU216HW,2013-07-24 19:01:00,
2013-07-24 14:03:00,78.1,55.6,29.59,WNW,293,3.8,3.8,46,0.00,,,0.00,WUHU216HW,2013-07-24 19:03:00,
2013-07-24 14:08:00,78.1,55.6,29.59,WNW,293,3.8,3.8,46,0.00,,,0.00,WUHU216HW,2013-07-24 19:08:00,
2013-07-24 15:00:00,77.2,53.6,29.58,NE,45,3.4,3.4,44,0.00,,,0.00,WUHU216HW,2013-07-24 20:00:00,
2013-07-24 15:05:00,77.2,53.6,29.58,NE,45,3.4,3.4,44,0.00,,,0.00,WUHU216HW,2013-07-24 20:05:00,
2013-07-24 16:00:00,79.6,54.5,29.57,ENE,68,1.6,1.6,42,0.00,,,0.00,WUHU216HW,2013-07-24 21:00:00,
2013-07-24 16:05:00,79.6,54.5,29.57,ENE,68,1.6,1.6,42,0.00,,,0.00,WUHU216HW,2013-07-24 21:05:00,
2013-07-24 17:00:00,79.4,54.3,29.57,North,0,2.0,2.0,42,0.00,,,0.00,WUHU216HW,2013-07-24 22:00:00,
2013-07-24 17:05:00,79.4,54.3,29.57,North,0,2.0,2.0,42,0.00,,,0.00,WUHU216HW,2013-07-24 22:05:00,
2013-07-24 18:00:00,80.8,55.5,29.57,North,0,0.4,0.4,42,0.00,,,0.00,WUHU216HW,2013-07-24 23:00:00,
2013-07-24 18:05:00,80.8,55.0,29.57,NE,45,1.3,1.3,41,0.00,,,0.00,WUHU216HW,2013-07-24 23:05:00,
2013-07-24 18:10:00,80.1,54.3,29.57,NE,45,1.6,1.8,41,0.00,,,0.00,WUHU216HW,2013-07-24 23:10:00,
2013-07-24 18:15:00,79.2,54.1,29.57,SSE,158,0.4,2.2,42,0.00,,,0.00,WUHU216HW,2013-07-24 23:15:00,
2013-07-24 18:20:00,78.8,53.8,29.57,ENE,68,0.9,2.2,42,0.00,,,0.00,WUHU216HW,2013-07-24 23:20:00,
2013-07-24 18:25:00,78.8,54.4,29.57,NE,45,0.9,2.0,43,0.00,,,0.00,WUHU216HW,2013-07-24 23:25:00,
2013-07-24 18:30:00,78.8,55.0,29.58,ESE,113,1.1,1.1,44,0.00,,,0.00,WUHU216HW,2013-07-24 23:30:00,
2013-07-24 18:35:00,79.2,55.4,29.58,NNW,338,1.8,1.8,44,0.00,,,0.00,WUHU216HW,2013-07-24 23:35:00,
2013-07-24 18:40:00,79.2,55.4,29.58,NNE,23,0.9,1.8,44,0.00,,,0.00,WUHU216HW,2013-07-24 23:40:00,
2013-07-24 18:45:00,78.8,55.0,29.58,NE,45,0.4,0.9,44,0.00,,,0.00,WUHU216HW,2013-07-24 23:45:00,
2013-07-24 18:50:00,78.3,54.6,29.58,NNE,23,0.2,1.1,44,0.00,,,0.00,WUHU216HW,2013-07-24 23:50:00,
2013-07-24 18:55:00,77.8,54.0,29.58,NNE,23,1.1,1.1,44,0.00,,,0.00,WUHU216HW,2013-07-24 23:55:00,
2013-07-24 19:00:00,77.6,53.9,29.58,NNE,23,0.9,1.1,44,0.00,,,0.00,WUHU216HW,2013-07-25 00:00:00,
2013-07-24 19:05:00,77.6,54.5,29.58,North,0,0.7,0.9,45,0.00,,,0.00,WUHU216HW,2013-07-25 00:05:00,
2013-07-24 19:10:00,77.8,54.6,29.58,North,0,0.0,1.1,45,0.00,,,0.00,WUHU216HW,2013-07-25 00:10:00,
2013-07-24 19:15:00,77.8,55.3,29.58,NE,45,0.0,1.8,46,0.00,,,0.00,WUHU216HW,2013-07-25 00:15:00,
2013-07-24 19:20:00,77.9,54.8,29.58,NNE,23,1.1,1.8,45,0.00,,,0.00,WUHU216HW,2013-07-25 00:20:00,
2013-07-24 19:25:00,77.9,54.8,29.58,NE,45,0.0,1.8,45,0.00,,,0.00,WUHU216HW,2013-07-25 00:25:00,
2013-07-24 19:30:00,77.8,54.6,29.58,West,270,0.7,1.8,45,0.00,,,0.00,WUHU216HW,2013-07-25 00:30:00,
2013-07-24 19:35:00,77.8,55.3,29.58,East,90,0.0,0.7,46,0.00,,,0.00,WUHU216HW,2013-07-25 00:35:00,
2013-07-24 19:40:00,77.6,54.5,29.58,ESE,113,0.0,0.4,45,0.00,,,0.00,WUHU216HW,2013-07-25 00:40:00,
2013-07-24 19:45:00,77.4,54.4,29.58,SW,225,0.0,0.2,45,0.00,,,0.00,WUHU216HW,2013-07-25 00:45:00,
2013-07-24 19:50:00,77.6,55.1,29.58,NNE,23,0.4,0.4,46,0.00,,,0.00,WUHU216HW,2013-07-25 00:50:00,
2013-07-24 19:55:00,77.6,54.5,29.58,SSW,203,0.4,1.1,45,0.00,,,0.00,WUHU216HW,2013-07-25 00:55:00,
2013-07-24 20:00:00,77.8,54.6,29.58,NNW,338,0.0,1.1,45,0.00,,,0.00,WUHU216HW,2013-07-25 01:00:00,
2013-07-24 20:05:00,77.4,54.9,29.58,West,270,0.0,0.9,46,0.00,,,0.00,WUHU216HW,2013-07-25 01:05:00,
2013-07-24 20:10:00,76.9,54.5,29.58,WNW,293,0.0,0.9,46,0.00,,,0.00,WUHU216HW,2013-07-25 01:10:00,
2013-07-24 20:15:00,76.7,54.9,29.58,ENE,68,0.4,0.9,47,0.00,,,0.00,WUHU216HW,2013-07-25 01:15:00,
2013-07-24 20:20:00,76.3,54.5,29.58,North,0,0.0,0.4,47,0.00,,,0.00,WUHU216HW,2013-07-25 01:20:00,
2013-07-24 20:25:00,76.0,54.9,29.58,NW,315,0.0,0.0,48,0.00,,,0.00,WUHU216HW,2013-07-25 01:25:00,
2013-07-24 20:30:00,76.0,54.9,29.58,NNW,338,0.0,0.0,48,0.00,,,0.00,WUHU216HW,2013-07-25 01:30:00,
2013-07-24 20:35:00,75.8,54.7,29.58,NNW,338,0.0,0.0,48,0.00,,,0.00,WUHU216HW,2013-07-25 01:35:00,
2013-07-24 20:40:00,75.6,54.5,29.58,NNW,338,0.0,0.0,48,0.00,,,0.00,WUHU216HW,2013-07-25 01:40:00,
2013-07-24 20:45:00,75.2,54.8,29.58,North,0,0.0,0.0,49,0.00,,,0.00,WUHU216HW,2013-07-25 01:45:00,
2013-07-24 20:50:00,74.9,54.5,29.58,North,0,0.0,0.0,49,0.00,,,0.00,WUHU216HW,2013-07-25 01:50:00,
2013-07-24 20:55:00,74.5,54.7,29.58,North,0,0.0,0.0,50,0.00,,,0.00,WUHU216HW,2013-07-25 01:55:00,
2013-07-24 21:00:00,74.2,54.4,29.58,NW,315,0.0,0.0,50,0.00,,,0.00,WUHU216HW,2013-07-25 02:00:00,
2013-07-24 21:05:00,74.0,54.2,29.58,NW,315,0.0,0.0,50,0.00,,,0.00,WUHU216HW,2013-07-25 02:05:00,
2013-07-24 21:10:00,73.8,54.6,29.58,NW,315,0.0,0.0,51,0.00,,,0.00,WUHU216HW,2013-07-25 02:10:00,
2013-07-24 21:15:00,73.6,54.4,29.58,NW,315,0.0,0.0,51,0.00,,,0.00,WUHU216HW,2013-07-25 02:15:00,
2013-07-24 21:20:00,73.4,54.2,29.58,NW,315,0.0,0.0,51,0.00,,,0.00,WUHU216HW,2013-07-25 02:20:00,
2013-07-24 21:25:00,73.3,54.0,29.58,WNW,293,0.0,0.0,51,0.00,,,0.00,WUHU216HW,2013-07-25 02:25:00,
2013-07-24 21:30:00,73.1,53.8,29.58,WNW,293,0.0,0.0,51,0.00,,,0.00,WUHU216HW,2013-07-25 02:30:00,
2013-07-24 21:35:00,73.1,54.4,29.58,East,90,0.0,0.0,52,0.00,,,0.00,WUHU216HW,2013-07-25 02:35:00,
2013-07-24 21:40:00,72.9,54.2,29.58,East,90,0.0,0.0,52,0.00,,,0.00,WUHU216HW,2013-07-25 02:40:00,
2013-07-24 21:45:00,72.5,53.8,29.58,East,90,0.0,0.0,52,0.00,,,0.00,WUHU216HW,2013-07-25 02:45:00,
2013-07-24 21:50:00,72.4,53.6,29.59,NNW,338,0.0,0.0,52,0.00,,,0.00,WUHU216HW,2013-07-25 02:50:00,
2013-07-24 21:55:00,72.0,53.8,29.59,North,0,0.0,0.0,53,0.00,,,0.00,WUHU216HW,2013-07-25 02:55:00,
2013-07-24 22:00:00,71.6,54.0,29.59,North,0,0.0,0.0,54,0.00,,,0.00,WUHU216HW,2013-07-25 03:00:00,
2013-07-24 22:05:00,71.3,54.2,29.59,NNW,338,0.0,0.0,55,0.00,,,0.00,WUHU216HW,2013-07-25 03:05:00,
2013-07-24 22:10:00,71.1,54.1,29.59,NNW,338,0.0,0.0,55,0.00,,,0.00,WUHU216HW,2013-07-25 03:10:00,
2013-07-24 22:15:00,70.9,53.9,29.59,NNW,338,0.0,0.0,55,0.00,,,0.00,WUHU216HW,2013-07-25 03:15:00,
2013-07-24 22:20:00,70.6,54.1,29.59,NNW,338,0.0,0.0,56,0.00,,,0.00,WUHU216HW,2013-07-25 03:20:00,
2013-07-24 22:25:00,70.2,53.3,29.60,NNW,338,0.0,0.0,55,0.00,,,0.00,WUHU216HW,2013-07-25 03:25:00,
2013-07-24 22:31:00,70.2,53.3,29.60,NNW,338,0.0,0.0,55,0.00,,,0.00,WUHU216HW,2013-07-25 03:31:00,
2013-07-24 22:36:00,69.8,53.5,29.60,North,0,0.0,0.0,56,0.00,,,0.00,WUHU216HW,2013-07-25 03:36:00,
2013-07-24 22:42:00,69.5,53.1,29.60,North,0,0.0,0.0,56,0.00,,,0.00,WUHU216HW,2013-07-25 03:42:00,
2013-07-24 22:47:00,69.3,53.4,29.60,North,0,0.0,0.0,57,0.00,,,0.00,WUHU216HW,2013-07-25 03:47:00,
2013-07-24 22:52:00,69.1,53.2,29.60,North,0,0.0,0.0,57,0.00,,,0.00,WUHU216HW,2013-07-25 03:52:00,
2013-07-24 22:57:00,68.9,53.0,29.60,North,0,0.0,0.0,57,0.00,,,0.00,WUHU216HW,2013-07-25 03:57:00,
2013-07-24 23:01:00,68.8,52.9,29.60,NNW,338,0.0,0.0,57,0.00,,,0.00,WUHU216HW,2013-07-25 04:01:00,
2013-07-24 23:06:00,68.6,53.2,29.60,North,0,0.0,0.0,58,0.00,,,0.00,WUHU216HW,2013-07-25 04:06:00,
2013-07-24 23:11:00,68.4,53.0,29.60,North,0,0.0,0.0,58,0.00,,,0.00,WUHU216HW,2013-07-25 04:11:00,
2013-07-24 23:16:00,68.2,53.4,29.60,ENE,68,1.1,1.1,59,0.00,,,0.00,WUHU216HW,2013-07-25 04:16:00,
2013-07-24 23:21:00,68.0,53.2,29.61,SE,135,0.7,1.1,59,0.00,,,0.00,WUHU216HW,2013-07-25 04:21:00,
2013-07-24 23:26:00,67.7,53.3,29.60,ENE,68,0.4,2.2,60,0.00,,,0.00,WUHU216HW,2013-07-25 04:26:00,
2013-07-24 23:31:00,67.3,53.5,29.61,ESE,113,0.2,2.2,61,0.00,,,0.00,WUHU216HW,2013-07-25 04:31:00,
2013-07-24 23:36:00,67.0,53.6,29.61,ENE,68,0.0,1.1,62,0.00,,,0.00,WUHU216HW,2013-07-25 04:36:00,
2013-07-24 23:42:00,66.6,53.7,29.60,ESE,113,1.6,1.6,63,0.00,,,0.00,WUHU216HW,2013-07-25 04:42:00,
2013-07-24 23:46:00,66.2,53.3,29.60,SE,135,0.9,1.6,63,0.00,,,0.00,WUHU216HW,2013-07-25 04:46:00,
2013-07-24 23:52:00,65.9,53.4,29.60,SE,135,0.4,1.8,64,0.00,,,0.00,WUHU216HW,2013-07-25 04:52:00,
2013-07-24 23:57:00,65.5,53.0,29.60,SE,135,1.3,1.8,64,0.00,,,0.00,WUHU216HW,2013-07-25 04:57:00,